Simultaneous Nadir Overpasses (SNOs) Predictions

Prediction of SNOs between LANDSAT-8 and NPP Satellite Orbit:

Table of predicted SNOs for the next 14.0 days since TLE Epoch: 2/9/2018
Index Date (LANDSAT-8) Time (LANDSAT-8) Lat,Lon (LANDSAT-8) SZA (LANDSAT-8 ) Date (NPP) Time (NPP) Lat,Lon (NPP) SZA (NPP ) Distance(km) Time Diff (sec)
1 02/10/2018 06:58:14 -70.13,-108.15 95.50 02/10/2018 06:57:32 -70.11,-108.12 95.51 2.09 42
2 02/10/2018 07:47:41 70.02, 59.35 84.40 02/10/2018 07:48:17 70.03, 59.30 84.40 2.10 36
3 02/12/2018 22:25:04 70.69,-159.08 84.17 02/12/2018 22:23:54 70.76,-160.69 84.31 59.64 70
4 02/12/2018 23:14:43 -70.09, 7.67 96.42 02/12/2018 23:14:25 -70.10, 7.67 96.40 1.51 18
5 02/13/2018 00:04:10 69.98, 175.17 83.47 02/13/2018 00:05:09 69.97, 175.17 83.46 0.93 59
6 02/15/2018 14:41:42 70.15, -43.99 82.75 02/15/2018 14:40:36 70.17, -43.98 82.78 2.17 66
7 02/15/2018 15:31:12 -70.04, 123.49 97.37 02/15/2018 15:31:17 -70.04, 123.54 97.38 1.94 5
8 02/15/2018 16:20:45 69.60, -69.47 82.21 02/15/2018 16:21:55 69.60, -68.49 82.15 37.98 70
9 02/18/2018 06:58:11 70.10, 71.82 81.76 02/18/2018 06:57:28 70.12, 71.88 81.78 2.85 43
10 02/18/2018 07:47:40 -70.05,-120.62 98.30 02/18/2018 07:48:10 -70.03,-120.67 98.32 2.92 30
11 02/20/2018 22:24:58 -70.93, 21.28 98.41 02/20/2018 22:23:50 -70.96, 18.99 98.26 83.09 68
12 02/20/2018 23:14:38 70.11,-172.30 80.81 02/20/2018 23:14:20 70.12,-172.34 80.82 1.82 18
13 02/21/2018 00:04:08 -70.00, -4.81 99.31 02/21/2018 00:05:01 -69.98, -4.81 99.34 2.83 53
14 02/23/2018 14:41:40 -70.17, 136.02 100.11 02/23/2018 14:40:28 -70.18, 136.04 100.08 1.44 72
15 02/23/2018 15:31:07 70.05, -56.50 79.78 02/23/2018 15:31:12 70.06, -56.48 79.79 1.78 5
16 02/23/2018 16:20:39 -69.84, 110.84 100.44 02/23/2018 16:21:51 -69.82, 111.21 100.49 14.37 72




NCC Satellite Simultaneous Nadir Overpasses (SNOs) Prediction Service
